Location: Geyikbay?r?
(36.8756°N, 30.4583°E)
Time: 12:02:03
(UTC+00:00)

Cosmos 1697 Rocket - Pass Details

Date: 05 August 2024
Orbit: 832 x 843 km, 71.0° (Epoch: 11 September)

Event Time Altitude Azimuth Distance (km) Brightness Sun altitude
Exits shadow 21:17:02 38° 351° (N) 1,245 3.9 -35.3°
Drops below altitude 10° 21:20:41 10° 13° (NNE) 2,445 5.7 -35.5°
Sets 21:23:11 0° 18° (NNE) 3,383 6.6 -35.6°
